QPF
0.00 0.00 0.00 0.00 0.00 0.00 0.00 0.00 0.00 0.00 0.00 0.00 0.00 0.00 0.00 0.00 0.00 0.00 0.00 0.00 0.00 0.00 0.00 0.00 0.00 0.00 0.00 0.00 0.00 0.00 0.00 0.00 0.00 0.00 0.00 0.00 0.00 0.00 0.00 0.00 0.00 0.00 0.00 0.00
0.00 0.00 0.00 0.00 0.00 0.00 0.00 0.00 0.00 0.00 0.00 0.00 0.00 0.00 0.00 0.00 0.00 0.00 0.00 0.00 0.00 0.00 0.00 0.00 0.00 0.00 0.00 0.00 0.00 0.00 0.00 0.00 0.00 0.00 0.00 0.00 0.00 0.00 0.00 0.00 0.00 0.00 0.00 0.00
0.00 0.00 0.00 0.00 0.00 0.00 0.00 0.00 0.00 0.00 0.00 0.00 0.00 0.00 0.00 0.00 0.00 0.00 0.00 0.00 0.00 0.00 0.00 0.00 0.00 0.00 0.00 0.00 0.00 0.00 0.00 0.00 0.00 0.00 0.00 0.00 0.00 0.00 0.00 0.00 0.00 0.00 0.00 0.00
0.00 0.00 0.00 0.00 0.00 0.00 0.00 0.00 0.00 0.00 0.00 0.00 0.00 0.00 0.00 0.00 0.00 0.00 0.00 0.00 0.00 0.00 0.00 0.00 0.00 0.00 0.00 0.00 0.00 0.00 0.00 0.00 0.00 0.00 0.00 0.00 0.00 0.00 0.00 0.00 0.00 0.00 0.00 0.00
0.01 0.01 0.00 0.00 0.00 0.00 0.00 0.00 0.00 0.00 0.00 0.00 0.00 0.00 0.00 0.00 0.00 0.00 0.00 0.00 0.00 0.00 0.00 0.00 0.00 0.00 0.00 0.00 0.00 0.00 0.00 0.00 0.00 0.00 0.00 0.00 0.00 0.00 0.00 0.00 0.00 0.00 0.00 0.00
0.02 0.01 0.00 0.00 0.00 0.00 0.00 0.00 0.00 0.00 0.00 0.00 0.00 0.00 0.00 0.00 0.00 0.00 0.00 0.00 0.00 0.00 0.00 0.00 0.00 0.00 0.00 0.00 0.00 0.00 0.00 0.00 0.00 0.00 0.00 0.00 0.00 0.00 0.00 0.00 0.00 0.00 0.00 0.00
0.02 0.01 0.00 0.00 0.00 0.00 0.00 0.00 0.00 0.00 0.00 0.00 0.00 0.00 0.00 0.00 0.00 0.00 0.00 0.00 0.00 0.00 0.00 0.00 0.00 0.00 0.00 0.00 0.00 0.00 0.00 0.00 0.00 0.00 0.00 0.00 0.00 0.00 0.00 0.00 0.00 0.00 0.00 0.00
0.01 0.01 0.00 0.00 0.00 0.00 0.00 0.00 0.00 0.00 0.00 0.00 0.00 0.00 0.00 0.00 0.00 0.00 0.00 0.00 0.00 0.00 0.00 0.00 0.00 0.00 0.00 0.00 0.00 0.00 0.00 0.00 0.00 0.00 0.00 0.00 0.00 0.00 0.00 0.00 0.00 0.00 0.00 0.00
0.00 0.00 0.00 0.00 0.00 0.00 0.00 0.00 0.00 0.00 0.00 0.00 0.00 0.00 0.00 0.00 0.00 0.00 0.00 0.00 0.00 0.00 0.00 0.00 0.00 0.00 0.00 0.00 0.00 0.00 0.00 0.00 0.00 0.00 0.00 0.00 0.00 0.00 0.00 0.00 0.00 0.00 0.00 0.00
0.00 0.00 0.00 0.00 0.00 0.00 0.00 0.00 0.00 0.00 0.00 0.00 0.00 0.00 0.00 0.00 0.00 0.00 0.00 0.00 0.00 0.00 0.00 0.00 0.00 0.00 0.00 0.00 0.00 0.00 0.00 0.00 0.00 0.00 0.00 0.00 0.00 0.00 0.00 0.00 0.00 0.00 0.00 0.00
0.00 0.00 0.00 0.00 0.00 0.00 0.00 0.00 0.00 0.00 0.00 0.00 0.00 0.00 0.00 0.00 0.00 0.00 0.00 0.00 0.00 0.00 0.00 0.00 0.00 0.00 0.00 0.00 0.00 0.00 0.00 0.00 0.00 0.00 0.00 0.00 0.00 0.00 0.00 0.00 0.00 0.00 0.00 0.00
0.00 0.00 0.00 0.00 0.00 0.00 0.00 0.00 0.00 0.00 0.00 0.00 0.00 0.00 0.00 0.00 0.00 0.00 0.00 0.00 0.00 0.00 0.00 0.00 0.00 0.00 0.00 0.00 0.00 0.00 0.00 0.00 0.00 0.00 0.00 0.00 0.00 0.00 0.00 0.00 0.00 0.00 0.00 0.00
0.00 0.00 0.00 0.00 0.00 0.00 0.00 0.00 0.00 0.00 0.00 0.00 0.00 0.00 0.00 0.00 0.00 0.00 0.00 0.01 0.01 0.00 0.01 0.01 0.01 0.01 0.01 0.00 0.00 0.01 0.01 0.00 0.00 0.00 0.00 0.00 0.00 0.00 0.00 0.00 0.00 0.00 0.00 0.00
0.00 0.00 0.00 0.00 0.00 0.00 0.00 0.00 0.00 0.00 0.00 0.00 0.00 0.00 0.00 0.00 0.00 0.00 0.01 0.00 0.01 0.01 0.01 0.01 0.01 0.01 0.01 0.01 0.01 0.01 0.00 0.00 0.00 0.00 0.00 0.00 0.00 0.00 0.00 0.00 0.00 0.01 0.01 0.00
0.00 0.00 0.00 0.00 0.00 0.00 0.00 0.00 0.00 0.00 0.00 0.00 0.00 0.00 0.00 0.01 0.00 0.01 0.01 0.01 0.01 0.01 0.01 0.01 0.01 0.01 0.01 0.00 0.00 0.00 0.00 0.00 0.00 0.00 0.00 0.00 0.00 0.00 0.00 0.00 0.01 0.01 0.02 0.02
0.00 0.00 0.00 0.00 0.00 0.00 0.00 0.00 0.00 0.00 0.00 0.00 0.00 0.00 0.00 0.00 0.00 0.00 0.01 0.01 0.01 0.01 0.01 0.01 0.00 0.00 0.00 0.00 0.00 0.00 0.00 0.00 0.00 0.00 0.00 0.00 0.00 0.00 0.00 0.01 0.02 0.03 0.03 0.02
0.00 0.00 0.00 0.00 0.00 0.00 0.00 0.00 0.00 0.00 0.00 0.00 0.00 0.00 0.00 0.00 0.00 0.00 0.00 0.00 0.00 0.00 0.00 0.00 0.00 0.00 0.00 0.00 0.00 0.00 0.00 0.00 0.00 0.00 0.00 0.00 0.01 0.01 0.01 0.01 0.02 0.03 0.02 0.02
0.00 0.00 0.00 0.00 0.00 0.00 0.00 0.00 0.00 0.00 0.00 0.00 0.00 0.00 0.00 0.00 0.00 0.00 0.00 0.00 0.00 0.00 0.00 0.00 0.00 0.00 0.00 0.00 0.00 0.00 0.00 0.00 0.00 0.00 0.00 0.01 0.01 0.01 0.01 0.02 0.02 0.02 0.02 0.03
0.00 0.00 0.00 0.00 0.00 0.00 0.00 0.00 0.00 0.00 0.00 0.00 0.00 0.00 0.00 0.00 0.00 0.00 0.00 0.00 0.00 0.00 0.00 0.00 0.00 0.00 0.00 0.00 0.00 0.00 0.00 0.00 0.01 0.01 0.01 0.01 0.01 0.01 0.02 0.02 0.02 0.01 0.02 0.04
0.00 0.00 0.00 0.00 0.00 0.00 0.00 0.00 0.00 0.00 0.00 0.00 0.00 0.00 0.00 0.00 0.00 0.00 0.00 0.00 0.00 0.00 0.00 0.00 0.00 0.00 0.00 0.00 0.00 0.00 0.01 0.01 0.01 0.01 0.01 0.01 0.01 0.01 0.02 0.02 0.01 0.01 0.03 0.03
0.00 0.00 0.00 0.00 0.00 0.00 0.00 0.00 0.00 0.00 0.00 0.00 0.00 0.00 0.00 0.00 0.00 0.00 0.00 0.00 0.00 0.00 0.00 0.00 0.00 0.00 0.00 0.00 0.00 0.01 0.01 0.01 0.02 0.02 0.02 0.01 0.01 0.02 0.02 0.02 0.01 0.02 0.02 0.02
0.00 0.00 0.00 0.00 0.00 0.00 0.00 0.00 0.00 0.00 0.00 0.00 0.00 0.00 0.00 0.00 0.00 0.00 0.00 0.00 0.00 0.00 0.00 0.00 0.00 0.00 0.00 0.01 0.01 0.02 0.02 0.02 0.02 0.02 0.02 0.01 0.01 0.02 0.02 0.01 0.01 0.01 0.02 0.02
0.00 0.00 0.00 0.00 0.00 0.00 0.00 0.00 0.00 0.00 0.00 0.00 0.00 0.00 0.00 0.00 0.00 0.00 0.01 0.00 0.00 0.00 0.00 0.00 0.00 0.01 0.01 0.01 0.03 0.04 0.04 0.04 0.04 0.04 0.03 0.02 0.01 0.01 0.01 0.00 0.00 0.00 0.01 0.01
0.00 0.00 0.00 0.00 0.00 0.00 0.00 0.00 0.00 0.00 0.00 0.00 0.00 0.00 0.00 0.00 0.00 0.01 0.01 0.00 0.00 0.00 0.00 0.01 0.01 0.01 0.02 0.03 0.05 0.05 0.06 0.06 0.05 0.04 0.02 0.02 0.01 0.01 0.01 0.01 0.01 0.01 0.01 0.01
0.00 0.00 0.00 0.00 0.00 0.00 0.00 0.00 0.00 0.00 0.00 0.00 0.00 0.00 0.00 0.01 0.01 0.01 0.01 0.01 0.01 0.01 0.02 0.03 0.03 0.04 0.04 0.06 0.07 0.07 0.06 0.06 0.05 0.04 0.02 0.01 0.01 0.01 0.01 0.01 0.01 0.01 0.01 0.01
0.00 0.00 0.00 0.00 0.00 0.00 0.00 0.00 0.00 0.00 0.00 0.00 0.00 0.00 0.00 0.01 0.01 0.01 0.02 0.02 0.02 0.02 0.04 0.05 0.07 0.07 0.08 0.10 0.10 0.09 0.07 0.06 0.04 0.03 0.02 0.01 0.01 0.01 0.01 0.01 0.01 0.01 0.01 0.01
0.00 0.00 0.00 0.00 0.00 0.00 0.00 0.00 0.00 0.00 0.00 0.01 0.00 0.00 0.01 0.02 0.02 0.02 0.02 0.02 0.03 0.04 0.06 0.07 0.07 0.07 0.08 0.10 0.10 0.08 0.06 0.05 0.03 0.03 0.03 0.02 0.02 0.01 0.01 0.01 0.01 0.01 0.01 0.01
MSLP
1011.92 1011.96 1011.98 1011.98 1011.97 1011.93 1011.84 1011.68 1011.45 1011.15 1010.79 1010.43 1010.08 1009.80 1009.63 1009.58 1009.67 1009.88 1010.19 1010.56 1010.96 1011.36 1011.72 1012.05 1012.33 1012.57 1012.78 1012.98 1013.15 1013.31 1013.44 1013.55 1013.61 1013.62 1013.59 1013.53 1013.44 1013.36 1013.28 1013.24 1013.22 1013.23 1013.25 1013.27
1012.03 1012.02 1011.94 1011.82 1011.65 1011.46 1011.23 1010.97 1010.68 1010.36 1010.04 1009.73 1009.46 1009.27 1009.16 1009.16 1009.26 1009.46 1009.74 1010.06 1010.41 1010.77 1011.10 1011.42 1011.71 1011.98 1012.24 1012.47 1012.69 1012.89 1013.05 1013.17 1013.23 1013.24 1013.20 1013.12 1013.03 1012.93 1012.86 1012.81 1012.80 1012.82 1012.86 1012.88
1012.14 1012.07 1011.91 1011.67 1011.37 1011.04 1010.69 1010.33 1009.97 1009.62 1009.30 1009.03 1008.81 1008.67 1008.60 1008.63 1008.73 1008.91 1009.15 1009.42 1009.73 1010.04 1010.36 1010.68 1011.00 1011.31 1011.62 1011.92 1012.20 1012.45 1012.66 1012.80 1012.88 1012.89 1012.84 1012.75 1012.64 1012.53 1012.45 1012.39 1012.38 1012.39 1012.42 1012.44
1012.18 1012.07 1011.83 1011.50 1011.10 1010.67 1010.21 1009.76 1009.34 1008.96 1008.63 1008.36 1008.16 1008.04 1007.99 1008.01 1008.10 1008.25 1008.44 1008.67 1008.94 1009.22 1009.53 1009.86 1010.21 1010.58 1010.96 1011.33 1011.69 1012.00 1012.25 1012.44 1012.54 1012.55 1012.50 1012.40 1012.27 1012.14 1012.03 1011.95 1011.91 1011.91 1011.91 1011.91
1012.10 1011.95 1011.68 1011.30 1010.84 1010.33 1009.81 1009.30 1008.82 1008.40 1008.04 1007.76 1007.56 1007.43 1007.37 1007.37 1007.43 1007.54 1007.69 1007.88 1008.11 1008.37 1008.68 1009.02 1009.41 1009.83 1010.27 1010.72 1011.14 1011.52 1011.83 1012.05 1012.18 1012.21 1012.16 1012.04 1011.89 1011.73 1011.59 1011.47 1011.40 1011.35 1011.33 1011.30
1011.86 1011.71 1011.43 1011.04 1010.57 1010.04 1009.48 1008.94 1008.43 1007.98 1007.60 1007.28 1007.05 1006.89 1006.80 1006.77 1006.79 1006.85 1006.96 1007.11 1007.31 1007.55 1007.86 1008.22 1008.64 1009.10 1009.59 1010.09 1010.58 1011.01 1011.37 1011.63 1011.78 1011.82 1011.77 1011.64 1011.47 1011.28 1011.10 1010.94 1010.82 1010.74 1010.68 1010.62
1011.49 1011.36 1011.12 1010.76 1010.31 1009.81 1009.27 1008.73 1008.21 1007.74 1007.32 1006.98 1006.70 1006.50 1006.36 1006.28 1006.24 1006.26 1006.33 1006.44 1006.61 1006.84 1007.13 1007.50 1007.93 1008.42 1008.94 1009.48 1010.00 1010.47 1010.86 1011.15 1011.32 1011.38 1011.33 1011.19 1011.00 1010.78 1010.56 1010.36 1010.20 1010.08 1009.98 1009.90
1011.05 1010.97 1010.79 1010.51 1010.13 1009.68 1009.19 1008.68 1008.17 1007.69 1007.25 1006.86 1006.55 1006.29 1006.09 1005.95 1005.87 1005.84 1005.86 1005.93 1006.07 1006.27 1006.55 1006.90 1007.33 1007.81 1008.34 1008.89 1009.42 1009.90 1010.31 1010.61 1010.79 1010.86 1010.81 1010.66 1010.45 1010.21 1009.96 1009.74 1009.54 1009.39 1009.28 1009.18
1010.64 1010.64 1010.54 1010.35 1010.07 1009.71 1009.28 1008.82 1008.33 1007.85 1007.39 1006.97 1006.60 1006.29 1006.03 1005.84 1005.70 1005.62 1005.60 1005.63 1005.73 1005.90 1006.14 1006.46 1006.85 1007.31 1007.80 1008.32 1008.83 1009.30 1009.69 1009.99 1010.18 1010.24 1010.20 1010.05 1009.84 1009.58 1009.32 1009.08 1008.87 1008.70 1008.59 1008.50
1010.38 1010.45 1010.45 1010.37 1010.19 1009.91 1009.56 1009.15 1008.69 1008.21 1007.73 1007.28 1006.86 1006.50 1006.19 1005.94 1005.75 1005.63 1005.56 1005.55 1005.61 1005.73 1005.92 1006.18 1006.51 1006.90 1007.33 1007.79 1008.24 1008.66 1009.02 1009.30 1009.47 1009.54 1009.49 1009.35 1009.14 1008.90 1008.64 1008.39 1008.18 1008.03 1007.92 1007.86
1010.35 1010.50 1010.59 1010.59 1010.50 1010.30 1010.01 1009.64 1009.20 1008.73 1008.23 1007.74 1007.29 1006.88 1006.53 1006.23 1006.01 1005.84 1005.74 1005.69 1005.69 1005.76 1005.88 1006.06 1006.29 1006.58 1006.91 1007.28 1007.64 1007.99 1008.30 1008.53 1008.69 1008.75 1008.71 1008.58 1008.39 1008.16 1007.92 1007.69 1007.50 1007.37 1007.29 1007.26
1010.60 1010.81 1010.95 1011.02 1010.98 1010.84 1010.59 1010.24 1009.81 1009.33 1008.82 1008.31 1007.82 1007.38 1007.00 1006.68 1006.42 1006.23 1006.09 1006.00 1005.95 1005.94 1005.97 1006.05 1006.17 1006.34 1006.54 1006.78 1007.04 1007.29 1007.53 1007.71 1007.83 1007.88 1007.85 1007.75 1007.58 1007.38 1007.17 1006.97 1006.81 1006.71 1006.66 1006.67
1011.09 1011.33 1011.50 1011.59 1011.58 1011.45 1011.21 1010.87 1010.43 1009.94 1009.42 1008.89 1008.39 1007.94 1007.54 1007.21 1006.94 1006.72 1006.55 1006.42 1006.31 1006.22 1006.16 1006.11 1006.10 1006.13 1006.19 1006.29 1006.42 1006.57 1006.72 1006.85 1006.94 1006.98 1006.96 1006.88 1006.75 1006.59 1006.41 1006.25 1006.13 1006.05 1006.03 1006.06
1011.74 1011.97 1012.14 1012.21 1012.19 1012.04 1011.79 1011.43 1010.99 1010.49 1009.96 1009.44 1008.93 1008.48 1008.09 1007.76 1007.48 1007.26 1007.06 1006.88 1006.71 1006.54 1006.37 1006.20 1006.05 1005.92 1005.83 1005.79 1005.79 1005.83 1005.89 1005.96 1006.02 1006.06 1006.05 1006.00 1005.91 1005.80 1005.66 1005.54 1005.44 1005.39 1005.38 1005.42
1012.43 1012.63 1012.76 1012.79 1012.72 1012.55 1012.26 1011.88 1011.43 1010.93 1010.40 1009.88 1009.40 1008.97 1008.59 1008.27 1008.00 1007.77 1007.55 1007.33 1007.09 1006.83 1006.55 1006.25 1005.96 1005.69 1005.45 1005.27 1005.14 1005.08 1005.06 1005.08 1005.12 1005.15 1005.17 1005.15 1005.11 1005.03 1004.94 1004.85 1004.77 1004.73 1004.72 1004.76
1013.06 1013.21 1013.27 1013.25 1013.13 1012.90 1012.58 1012.18 1011.72 1011.22 1010.72 1010.22 1009.76 1009.36 1009.01 1008.71 1008.44 1008.20 1007.95 1007.69 1007.38 1007.03 1006.65 1006.23 1005.81 1005.40 1005.04 1004.73 1004.50 1004.34 1004.26 1004.24 1004.26 1004.30 1004.34 1004.36 1004.35 1004.32 1004.26 1004.19 1004.13 1004.08 1004.06 1004.07
1013.53 1013.62 1013.62 1013.54 1013.36 1013.10 1012.75 1012.34 1011.88 1011.39 1010.91 1010.44 1010.02 1009.64 1009.32 1009.03 1008.77 1008.51 1008.24 1007.92 1007.55 1007.12 1006.64 1006.12 1005.59 1005.07 1004.60 1004.19 1003.87 1003.65 1003.52 1003.48 1003.49 1003.54 1003.60 1003.66 1003.68 1003.68 1003.65 1003.60 1003.54 1003.48 1003.43 1003.40
1013.82 1013.85 1013.79 1013.65 1013.44 1013.14 1012.78 1012.37 1011.92 1011.46 1011.00 1010.57 1010.17 1009.82 1009.51 1009.23 1008.96 1008.68 1008.36 1008.00 1007.57 1007.07 1006.52 1005.92 1005.31 1004.71 1004.16 1003.69 1003.32 1003.05 1002.89 1002.83 1002.84 1002.91 1002.99 1003.07 1003.13 1003.15 1003.14 1003.09 1003.02 1002.94 1002.87 1002.80
1013.91 1013.89 1013.80 1013.63 1013.38 1013.08 1012.71 1012.31 1011.88 1011.44 1011.00 1010.59 1010.21 1009.87 1009.56 1009.27 1008.98 1008.68 1008.33 1007.92 1007.45 1006.91 1006.31 1005.66 1005.01 1004.37 1003.79 1003.28 1002.88 1002.60 1002.43 1002.36 1002.37 1002.44 1002.53 1002.63 1002.70 1002.74 1002.73 1002.69 1002.61 1002.51 1002.40 1002.29
1013.86 1013.80 1013.68 1013.49 1013.24 1012.93 1012.57 1012.18 1011.76 1011.34 1010.92 1010.52 1010.15 1009.80 1009.48 1009.17 1008.85 1008.52 1008.14 1007.71 1007.22 1006.66 1006.05 1005.41 1004.75 1004.12 1003.53 1003.03 1002.63 1002.34 1002.17 1002.10 1002.10 1002.17 1002.26 1002.36 1002.43 1002.47 1002.46 1002.40 1002.31 1002.19 1002.06 1001.91
1013.70 1013.62 1013.47 1013.27 1013.02 1012.71 1012.37 1011.99 1011.58 1011.16 1010.75 1010.34 1009.96 1009.59 1009.25 1008.91 1008.58 1008.23 1007.84 1007.41 1006.93 1006.40 1005.82 1005.21 1004.60 1004.00 1003.46 1002.99 1002.61 1002.33 1002.16 1002.08 1002.07 1002.12 1002.19 1002.27 1002.32 1002.34 1002.31 1002.25 1002.14 1002.00 1001.85 1001.68
1013.45 1013.35 1013.19 1012.98 1012.73 1012.43 1012.08 1011.70 1011.30 1010.88 1010.45 1010.03 1009.63 1009.24 1008.88 1008.53 1008.18 1007.83 1007.47 1007.07 1006.64 1006.17 1005.67 1005.14 1004.61 1004.09 1003.61 1003.19 1002.85 1002.59 1002.41 1002.31 1002.27 1002.28 1002.32 1002.35 1002.37 1002.35 1002.30 1002.21 1002.09 1001.93 1001.77 1001.59
1013.14 1013.00 1012.83 1012.61 1012.35 1012.04 1011.70 1011.31 1010.90 1010.46 1010.02 1009.58 1009.16 1008.76 1008.39 1008.04 1007.71 1007.39 1007.08 1006.76 1006.41 1006.04 1005.65 1005.24 1004.82 1004.40 1004.01 1003.65 1003.35 1003.10 1002.91 1002.78 1002.69 1002.65 1002.61 1002.59 1002.55 1002.49 1002.40 1002.28 1002.14 1001.98 1001.80 1001.61
1012.74 1012.58 1012.38 1012.14 1011.87 1011.55 1011.19 1010.79 1010.36 1009.92 1009.46 1009.01 1008.58 1008.18 1007.82 1007.50 1007.22 1006.97 1006.74 1006.52 1006.30 1006.06 1005.81 1005.53 1005.24 1004.94 1004.63 1004.34 1004.06 1003.82 1003.61 1003.43 1003.28 1003.16 1003.05 1002.95 1002.84 1002.73 1002.59 1002.44 1002.28 1002.10 1001.92 1001.72
1012.26 1012.06 1011.83 1011.58 1011.28 1010.95 1010.57 1010.17 1009.73 1009.28 1008.82 1008.37 1007.96 1007.59 1007.26 1007.00 1006.79 1006.63 1006.51 1006.42 1006.33 1006.24 1006.14 1006.01 1005.84 1005.65 1005.43 1005.19 1004.93 1004.68 1004.43 1004.20 1003.98 1003.77 1003.57 1003.39 1003.21 1003.03 1002.85 1002.67 1002.48 1002.28 1002.09 1001.88
1011.71 1011.47 1011.22 1010.94 1010.63 1010.28 1009.90 1009.49 1009.05 1008.61 1008.17 1007.75 1007.38 1007.05 1006.80 1006.61 1006.50 1006.45 1006.45 1006.49 1006.55 1006.60 1006.63 1006.63 1006.58 1006.47 1006.32 1006.12 1005.87 1005.60 1005.31 1005.01 1004.71 1004.41 1004.13 1003.87 1003.61 1003.37 1003.15 1002.92 1002.71 1002.50 1002.28 1002.06
1011.11 1010.85 1010.57 1010.28 1009.96 1009.61 1009.24 1008.84 1008.43 1008.01 1007.62 1007.25 1006.94 1006.69 1006.52 1006.42 1006.41 1006.48 1006.60 1006.76 1006.94 1007.11 1007.25 1007.35 1007.38 1007.34 1007.23 1007.04 1006.79 1006.49 1006.15 1005.79 1005.42 1005.04 1004.69 1004.35 1004.03 1003.73 1003.46 1003.20 1002.96 1002.72 1002.48 1002.24
Thickness
5760 5764 5760 5755 5755 5755 5747 5747 5743 5749 5754 5761 5766 5765 5765 5763 5758 5752 5747 5743 5740 5736 5732 5726 5721 5715 5710 5705 5699 5693 5687 5682 5677 5673 5668 5663 5658 5652 5647 5641 5636 5631 5625 5619
5751 5760 5758 5751 5755 5756 5753 5752 5750 5751 5753 5771 5770 5766 5762 5759 5755 5749 5746 5744 5741 5736 5732 5726 5720 5714 5709 5703 5697 5691 5684 5679 5675 5670 5664 5659 5654 5648 5642 5636 5630 5624 5618 5612
5740 5756 5749 5740 5756 5757 5756 5759 5754 5749 5758 5767 5762 5759 5759 5758 5755 5751 5748 5746 5742 5738 5733 5727 5722 5715 5707 5701 5695 5688 5681 5676 5672 5666 5661 5655 5649 5643 5637 5630 5624 5617 5611 5605
5741 5739 5719 5752 5774 5768 5759 5760 5764 5761 5763 5763 5761 5761 5761 5761 5757 5753 5750 5747 5744 5740 5735 5729 5723 5716 5707 5700 5692 5685 5679 5674 5669 5663 5657 5651 5644 5637 5630 5624 5617 5611 5604 5599
5734 5730 5735 5758 5767 5764 5755 5754 5768 5763 5762 5764 5763 5757 5760 5764 5760 5756 5754 5750 5747 5743 5739 5731 5722 5714 5705 5697 5690 5683 5677 5671 5666 5659 5652 5645 5637 5630 5624 5617 5610 5604 5599 5594
5728 5717 5717 5747 5764 5769 5757 5744 5766 5763 5759 5761 5754 5744 5755 5768 5764 5758 5755 5751 5747 5743 5736 5727 5719 5711 5701 5694 5687 5680 5674 5668 5661 5653 5645 5638 5631 5623 5617 5610 5604 5598 5594 5589
5722 5718 5733 5754 5761 5758 5733 5736 5757 5760 5757 5757 5752 5752 5761 5765 5761 5757 5753 5749 5744 5737 5730 5724 5716 5706 5696 5690 5683 5677 5671 5663 5655 5647 5639 5632 5625 5617 5611 5604 5599 5593 5588 5584
5724 5716 5725 5749 5751 5741 5738 5748 5750 5750 5752 5752 5752 5755 5756 5755 5752 5749 5746 5743 5738 5730 5725 5719 5711 5702 5692 5685 5680 5673 5664 5656 5648 5641 5634 5628 5620 5612 5605 5598 5593 5589 5584 5581
5733 5732 5741 5744 5739 5738 5738 5737 5739 5742 5745 5746 5746 5747 5748 5747 5746 5743 5740 5736 5732 5725 5718 5713 5705 5697 5688 5682 5674 5666 5657 5649 5642 5635 5628 5621 5613 5607 5601 5596 5591 5587 5583 5579
5728 5736 5735 5730 5727 5726 5726 5726 5730 5733 5736 5738 5736 5737 5737 5736 5734 5732 5730 5727 5723 5717 5711 5705 5699 5692 5686 5678 5668 5659 5651 5643 5637 5629 5623 5616 5609 5604 5598 5594 5589 5584 5579 5575
5719 5726 5725 5717 5710 5712 5714 5716 5718 5721 5723 5723 5723 5722 5722 5721 5719 5718 5716 5715 5712 5706 5701 5697 5692 5686 5679 5671 5661 5652 5644 5637 5631 5625 5620 5611 5604 5599 5593 5589 5583 5576 5573 5570
5711 5705 5705 5697 5698 5701 5701 5701 5703 5704 5705 5707 5708 5706 5707 5706 5704 5703 5701 5700 5697 5694 5690 5687 5682 5677 5671 5664 5656 5646 5637 5631 5627 5621 5615 5608 5601 5596 5591 5582 5575 5567 5561 5556
5698 5697 5694 5689 5688 5690 5690 5691 5692 5691 5690 5690 5691 5692 5691 5690 5689 5688 5687 5685 5682 5680 5678 5675 5671 5667 5662 5655 5648 5640 5632 5626 5621 5616 5609 5603 5596 5591 5587 5581 5572 5565 5559 5553
5687 5683 5675 5674 5674 5676 5678 5679 5680 5679 5678 5677 5676 5675 5674 5674 5673 5671 5670 5669 5668 5667 5665 5662 5659 5655 5651 5646 5639 5632 5625 5620 5613 5608 5602 5596 5591 5586 5581 5577 5573 5571 5563 5554
5671 5670 5665 5663 5662 5663 5663 5664 5663 5662 5661 5660 5660 5658 5657 5655 5654 5654 5654 5654 5653 5652 5650 5648 5645 5642 5638 5634 5628 5623 5618 5614 5608 5602 5596 5590 5585 5580 5576 5572 5569 5566 5563 5559
5656 5654 5652 5649 5646 5646 5647 5646 5644 5644 5644 5644 5643 5642 5642 5641 5641 5640 5639 5638 5636 5636 5634 5632 5630 5628 5626 5622 5617 5613 5609 5603 5596 5592 5588 5583 5578 5574 5571 5568 5565 5562 5559 5557
5639 5635 5633 5631 5630 5629 5629 5629 5629 5629 5629 5629 5629 5630 5629 5627 5626 5624 5623 5622 5621 5620 5619 5617 5615 5613 5611 5608 5605 5603 5602 5598 5586 5580 5579 5575 5571 5568 5566 5562 5560 5557 5555 5553
5624 5621 5618 5616 5615 5614 5615 5616 5617 5616 5616 5615 5615 5615 5613 5611 5609 5607 5607 5606 5606 5605 5604 5601 5597 5594 5594 5593 5591 5590 5589 5587 5582 5576 5571 5566 5563 5561 5559 5556 5554 5552 5552 5549
5611 5609 5607 5605 5604 5604 5603 5604 5604 5603 5602 5601 5599 5597 5596 5594 5592 5591 5590 5588 5587 5588 5586 5583 5576 5578 5580 5580 5576 5575 5574 5573 5570 5566 5561 5556 5552 5553 5552 5550 5549 5548 5546 5545
5599 5598 5597 5596 5595 5594 5593 5592 5590 5589 5587 5586 5583 5581 5579 5577 5575 5573 5571 5569 5569 5567 5563 5560 5560 5563 5564 5564 5558 5561 5561 5559 5558 5555 5551 5549 5547 5546 5545 5544 5543 5542 5541 5539
5588 5587 5586 5586 5583 5582 5580 5577 5575 5573 5571 5569 5566 5563 5561 5559 5557 5555 5553 5552 5550 5545 5542 5541 5543 5545 5545 5541 5538 5543 5545 5544 5543 5541 5539 5538 5537 5537 5536 5536 5536 5535 5534 5533
5576 5575 5573 5571 5569 5567 5565 5563 5561 5559 5556 5553 5550 5547 5544 5542 5541 5538 5535 5533 5531 5524 5523 5526 5526 5521 5518 5517 5525 5528 5528 5528 5527 5527 5526 5526 5526 5526 5527 5528 5528 5527 5527 5526
5563 5561 5559 5557 5555 5553 5551 5549 5547 5545 5541 5537 5534 5531 5529 5526 5523 5521 5520 5517 5513 5505 5503 5505 5499 5496 5496 5503 5508 5510 5511 5511 5511 5513 5514 5515 5516 5517 5520 5521 5520 5519 5519 5518
5549 5547 5545 5543 5541 5539 5537 5536 5533 5530 5527 5523 5521 5518 5515 5514 5512 5509 5505 5500 5494 5488 5489 5484 5479 5479 5480 5487 5490 5492 5494 5495 5497 5499 5501 5504 5506 5509 5510 5511 5511 5511 5511 5511
5536 5534 5532 5530 5527 5527 5525 5523 5521 5518 5515 5514 5511 5508 5505 5502 5498 5496 5491 5487 5480 5476 5476 5472 5467 5465 5468 5470 5471 5473 5475 5477 5480 5485 5489 5494 5497 5498 5499 5501 5502 5502 5503 5504
5523 5521 5521 5517 5515 5512 5512 5512 5510 5508 5505 5503 5500 5498 5495 5491 5488 5484 5480 5476 5471 5465 5463 5460 5457 5454 5454 5454 5455 5457 5460 5464 5469 5473 5476 5480 5484 5486 5489 5491 5492 5494 5496 5498
5514 5513 5511 5510 5509 5507 5505 5503 5500 5498 5495 5493 5491 5488 5485 5482 5479 5475 5471 5466 5461 5456 5450 5445 5442 5440 5440 5441 5442 5445 5448 5452 5456 5460 5465 5469 5473 5476 5479 5481 5484 5487 5490 5494